QPF
0.01 0.00 0.00 0.00 0.00 0.00 0.00 0.01 0.01 0.01 0.00 0.00 0.00 0.00 0.00 0.00 0.00 0.00 0.00 0.00 0.01 0.01 0.01 0.01 0.01 0.01 0.01 0.01 0.02 0.02 0.03 0.03 0.04 0.06 0.05 0.04 0.04 0.05 0.05 0.04 0.03 0.01 0.01
0.00 0.00 0.00 0.00 0.00 0.00 0.00 0.01 0.01 0.01 0.00 0.00 0.00 0.00 0.00 0.00 0.00 0.00 0.01 0.01 0.01 0.01 0.01 0.00 0.00 0.00 0.01 0.01 0.02 0.02 0.02 0.03 0.05 0.08 0.06 0.03 0.03 0.05 0.05 0.03 0.03 0.01 0.01
0.01 0.00 0.00 0.00 0.00 0.00 0.00 0.01 0.00 0.01 0.00 0.00 0.00 0.00 0.00 0.00 0.00 0.01 0.01 0.01 0.01 0.00 0.00 0.00 0.00 0.00 0.01 0.01 0.01 0.02 0.02 0.04 0.07 0.11 0.08 0.02 0.02 0.06 0.06 0.04 0.03 0.01 0.01
0.01 0.00 0.00 0.00 0.00 0.00 0.00 0.00 0.01 0.01 0.00 0.00 0.00 0.00 0.00 0.00 0.01 0.01 0.01 0.01 0.01 0.01 0.00 0.00 0.00 0.01 0.01 0.01 0.02 0.02 0.02 0.03 0.06 0.09 0.05 0.02 0.01 0.04 0.04 0.03 0.02 0.01 0.01
0.01 0.00 0.00 0.00 0.00 0.00 0.00 0.00 0.01 0.01 0.00 0.00 0.00 0.01 0.01 0.01 0.01 0.00 0.01 0.01 0.01 0.01 0.00 0.00 0.00 0.00 0.01 0.01 0.01 0.02 0.03 0.05 0.09 0.10 0.06 0.04 0.02 0.02 0.02 0.01 0.02 0.01 0.01
0.01 0.00 0.00 0.00 0.00 0.00 0.00 0.00 0.00 0.01 0.00 0.00 0.00 0.01 0.01 0.01 0.01 0.01 0.01 0.01 0.01 0.01 0.00 0.00 0.00 0.00 0.01 0.01 0.01 0.02 0.05 0.08 0.11 0.09 0.09 0.05 0.03 0.02 0.02 0.02 0.02 0.02 0.02
0.00 0.00 0.00 0.00 0.00 0.00 0.00 0.00 0.00 0.00 0.00 0.00 0.00 0.00 0.01 0.00 0.00 0.01 0.01 0.00 0.01 0.00 0.00 0.00 0.00 0.00 0.00 0.00 0.01 0.02 0.05 0.10 0.12 0.12 0.13 0.07 0.04 0.03 0.01 0.01 0.02 0.02 0.02
0.00 0.00 0.00 0.00 0.00 0.00 0.00 0.00 0.00 0.00 0.00 0.00 0.00 0.00 0.00 0.00 0.00 0.00 0.00 0.00 0.00 0.00 0.00 0.00 0.00 0.00 0.00 0.00 0.01 0.02 0.04 0.07 0.13 0.16 0.19 0.10 0.06 0.05 0.02 0.01 0.01 0.02 0.02
0.01 0.00 0.00 0.00 0.00 0.00 0.00 0.00 0.00 0.00 0.00 0.00 0.01 0.01 0.00 0.01 0.00 0.00 0.00 0.00 0.00 0.00 0.00 0.00 0.00 0.00 0.00 0.00 0.01 0.02 0.04 0.06 0.10 0.17 0.26 0.18 0.08 0.06 0.03 0.01 0.01 0.01 0.01
0.03 0.01 0.00 0.00 0.00 0.00 0.00 0.00 0.00 0.00 0.00 0.00 0.00 0.01 0.01 0.01 0.01 0.01 0.01 0.00 0.00 0.00 0.00 0.00 0.00 0.00 0.00 0.01 0.01 0.02 0.04 0.07 0.11 0.22 0.26 0.19 0.09 0.06 0.04 0.02 0.01 0.01 0.01
0.08 0.03 0.01 0.00 0.00 0.00 0.00 0.00 0.01 0.00 0.00 0.00 0.01 0.01 0.02 0.02 0.02 0.02 0.02 0.01 0.00 0.00 0.00 0.00 0.01 0.01 0.01 0.01 0.02 0.03 0.04 0.09 0.18 0.29 0.25 0.18 0.12 0.06 0.04 0.03 0.02 0.01 0.01
0.23 0.10 0.05 0.02 0.01 0.01 0.01 0.00 0.01 0.01 0.00 0.01 0.01 0.02 0.02 0.03 0.04 0.03 0.04 0.03 0.01 0.00 0.00 0.01 0.01 0.01 0.01 0.02 0.03 0.04 0.06 0.10 0.19 0.24 0.23 0.22 0.15 0.09 0.06 0.04 0.02 0.01 0.01
0.32 0.20 0.13 0.07 0.02 0.02 0.02 0.01 0.01 0.02 0.01 0.02 0.02 0.02 0.03 0.03 0.03 0.03 0.02 0.02 0.01 0.01 0.01 0.01 0.01 0.01 0.01 0.02 0.03 0.04 0.07 0.12 0.20 0.22 0.27 0.21 0.14 0.11 0.07 0.06 0.04 0.02 0.01
0.29 0.30 0.23 0.14 0.10 0.06 0.05 0.04 0.03 0.03 0.02 0.03 0.03 0.03 0.02 0.02 0.02 0.02 0.01 0.01 0.01 0.00 0.00 0.00 0.01 0.01 0.02 0.03 0.03 0.05 0.07 0.10 0.16 0.20 0.21 0.15 0.11 0.11 0.08 0.06 0.04 0.02 0.01
0.38 0.43 0.39 0.31 0.20 0.12 0.10 0.06 0.04 0.05 0.03 0.03 0.03 0.03 0.01 0.01 0.01 0.01 0.01 0.01 0.00 0.00 0.01 0.01 0.01 0.01 0.02 0.02 0.02 0.03 0.05 0.07 0.09 0.12 0.09 0.09 0.08 0.08 0.09 0.08 0.06 0.04 0.03
0.48 0.50 0.43 0.41 0.26 0.15 0.12 0.08 0.07 0.08 0.08 0.03 0.02 0.02 0.01 0.01 0.01 0.01 0.00 0.00 0.00 0.00 0.00 0.01 0.00 0.00 0.01 0.01 0.01 0.01 0.02 0.03 0.05 0.07 0.06 0.06 0.07 0.06 0.08 0.08 0.07 0.07 0.06
0.52 0.51 0.40 0.41 0.33 0.15 0.10 0.07 0.06 0.06 0.05 0.02 0.02 0.02 0.01 0.01 0.01 0.01 0.00 0.00 0.00 0.00 0.00 0.00 0.00 0.00 0.00 0.01 0.01 0.01 0.01 0.01 0.02 0.04 0.05 0.05 0.04 0.05 0.06 0.07 0.07 0.07 0.08
0.47 0.43 0.39 0.36 0.32 0.16 0.11 0.07 0.06 0.05 0.03 0.02 0.01 0.02 0.01 0.00 0.01 0.01 0.00 0.00 0.00 0.00 0.00 0.00 0.01 0.01 0.00 0.00 0.00 0.01 0.01 0.01 0.01 0.02 0.03 0.03 0.03 0.02 0.03 0.05 0.06 0.06 0.07
0.35 0.35 0.32 0.29 0.26 0.17 0.11 0.06 0.05 0.05 0.04 0.02 0.02 0.01 0.01 0.00 0.00 0.00 0.00 0.00 0.00 0.00 0.00 0.00 0.00 0.00 0.00 0.00 0.00 0.00 0.00 0.00 0.00 0.01 0.01 0.01 0.01 0.01 0.01 0.03 0.05 0.05 0.06
0.33 0.36 0.37 0.28 0.22 0.16 0.10 0.07 0.05 0.04 0.03 0.02 0.01 0.01 0.00 0.00 0.00 0.00 0.00 0.00 0.00 0.00 0.00 0.00 0.00 0.00 0.00 0.00 0.00 0.00 0.00 0.00 0.00 0.00 0.01 0.01 0.01 0.01 0.01 0.01 0.02 0.03 0.05
0.35 0.39 0.36 0.29 0.19 0.14 0.06 0.05 0.04 0.04 0.02 0.01 0.00 0.00 0.00 0.00 0.00 0.00 0.00 0.00 0.00 0.00 0.00 0.00 0.00 0.00 0.00 0.00 0.00 0.00 0.00 0.00 0.00 0.00 0.00 0.01 0.01 0.01 0.01 0.01 0.01 0.01 0.02
0.30 0.37 0.34 0.27 0.19 0.12 0.06 0.03 0.03 0.02 0.01 0.00 0.00 0.00 0.00 0.00 0.00 0.00 0.00 0.00 0.00 0.00 0.00 0.00 0.00 0.00 0.00 0.00 0.00 0.00 0.00 0.00 0.00 0.00 0.00 0.00 0.00 0.00 0.01 0.01 0.01 0.00 0.01
0.21 0.25 0.28 0.22 0.17 0.12 0.07 0.04 0.03 0.01 0.01 0.00 0.00 0.00 0.00 0.00 0.00 0.00 0.00 0.00 0.00 0.00 0.00 0.00 0.00 0.00 0.00 0.00 0.00 0.00 0.00 0.01 0.00 0.00 0.00 0.00 0.00 0.00 0.00 0.00 0.00 0.00 0.00
0.10 0.14 0.19 0.16 0.12 0.09 0.06 0.03 0.01 0.00 0.00 0.00 0.00 0.00 0.00 0.00 0.00 0.00 0.00 0.00 0.00 0.00 0.00 0.00 0.00 0.00 0.00 0.00 0.00 0.00 0.00 0.00 0.00 0.00 0.00 0.00 0.00 0.00 0.00 0.00 0.00 0.00 0.00
0.08 0.10 0.12 0.13 0.10 0.07 0.04 0.03 0.01 0.00 0.00 0.00 0.00 0.00 0.00 0.00 0.00 0.00 0.00 0.00 0.00 0.00 0.00 0.00 0.00 0.00 0.00 0.00 0.00 0.00 0.00 0.00 0.00 0.00 0.00 0.00 0.00 0.00 0.00 0.00 0.00 0.00 0.00
0.07 0.09 0.08 0.09 0.07 0.05 0.03 0.02 0.01 0.01 0.00 0.00 0.00 0.00 0.00 0.00 0.00 0.00 0.00 0.00 0.00 0.00 0.00 0.00 0.00 0.00 0.00 0.00 0.00 0.00 0.00 0.00 0.00 0.00 0.00 0.00 0.00 0.00 0.00 0.00 0.00 0.00 0.00
MSLP
1013.62 1013.05 1012.72 1012.68 1012.88 1013.24 1013.64 1013.98 1014.18 1014.24 1014.17 1014.05 1013.97 1013.97 1014.10 1014.33 1014.63 1014.94 1015.20 1015.39 1015.50 1015.53 1015.52 1015.51 1015.51 1015.53 1015.58 1015.64 1015.69 1015.72 1015.73 1015.73 1015.74 1015.77 1015.83 1015.92 1016.04 1016.17 1016.32 1016.46 1016.60 1016.74 1016.88
1013.26 1012.80 1012.58 1012.62 1012.89 1013.28 1013.70 1014.03 1014.23 1014.29 1014.24 1014.16 1014.13 1014.20 1014.37 1014.64 1014.96 1015.27 1015.51 1015.66 1015.73 1015.73 1015.70 1015.67 1015.66 1015.70 1015.75 1015.81 1015.85 1015.87 1015.86 1015.85 1015.84 1015.87 1015.93 1016.04 1016.17 1016.33 1016.49 1016.64 1016.79 1016.93 1017.08
1012.77 1012.43 1012.33 1012.47 1012.82 1013.27 1013.72 1014.08 1014.30 1014.38 1014.37 1014.34 1014.36 1014.48 1014.69 1014.97 1015.28 1015.56 1015.76 1015.87 1015.89 1015.86 1015.81 1015.78 1015.79 1015.84 1015.90 1015.96 1016.00 1016.01 1016.00 1015.98 1015.98 1016.02 1016.10 1016.22 1016.37 1016.54 1016.71 1016.87 1017.01 1017.16 1017.31
1012.25 1012.05 1012.07 1012.33 1012.77 1013.28 1013.77 1014.16 1014.41 1014.52 1014.55 1014.57 1014.63 1014.77 1015.00 1015.27 1015.55 1015.78 1015.93 1015.98 1015.97 1015.93 1015.89 1015.88 1015.91 1015.98 1016.07 1016.14 1016.18 1016.20 1016.19 1016.18 1016.19 1016.25 1016.35 1016.50 1016.67 1016.85 1017.01 1017.16 1017.29 1017.43 1017.58
1011.84 1011.77 1011.91 1012.27 1012.79 1013.35 1013.88 1014.29 1014.56 1014.70 1014.76 1014.80 1014.89 1015.04 1015.26 1015.50 1015.73 1015.91 1016.01 1016.03 1016.01 1015.97 1015.95 1015.98 1016.05 1016.16 1016.27 1016.37 1016.42 1016.44 1016.44 1016.44 1016.48 1016.57 1016.70 1016.87 1017.06 1017.23 1017.39 1017.51 1017.62 1017.74 1017.87
1011.61 1011.65 1011.90 1012.35 1012.92 1013.52 1014.05 1014.47 1014.73 1014.87 1014.94 1015.00 1015.10 1015.25 1015.45 1015.66 1015.84 1015.97 1016.03 1016.04 1016.01 1016.00 1016.02 1016.10 1016.23 1016.38 1016.53 1016.64 1016.70 1016.73 1016.74 1016.77 1016.83 1016.95 1017.11 1017.30 1017.50 1017.67 1017.80 1017.90 1017.97 1018.06 1018.17
1011.58 1011.72 1012.06 1012.56 1013.16 1013.75 1014.27 1014.65 1014.89 1015.02 1015.08 1015.14 1015.24 1015.39 1015.56 1015.75 1015.90 1015.99 1016.03 1016.02 1016.02 1016.04 1016.11 1016.25 1016.43 1016.62 1016.80 1016.92 1017.00 1017.03 1017.05 1017.09 1017.18 1017.32 1017.52 1017.73 1017.93 1018.09 1018.20 1018.26 1018.30 1018.34 1018.43
1011.71 1011.93 1012.33 1012.86 1013.45 1014.01 1014.47 1014.80 1015.00 1015.09 1015.15 1015.21 1015.31 1015.46 1015.63 1015.80 1015.93 1016.01 1016.03 1016.03 1016.04 1016.10 1016.22 1016.41 1016.63 1016.85 1017.04 1017.18 1017.25 1017.29 1017.32 1017.37 1017.47 1017.64 1017.85 1018.08 1018.29 1018.45 1018.53 1018.56 1018.56 1018.57 1018.62
1011.90 1012.18 1012.62 1013.16 1013.72 1014.23 1014.62 1014.88 1015.03 1015.09 1015.14 1015.21 1015.33 1015.49 1015.68 1015.85 1015.98 1016.05 1016.07 1016.08 1016.11 1016.18 1016.33 1016.54 1016.78 1017.02 1017.22 1017.35 1017.43 1017.46 1017.49 1017.54 1017.66 1017.84 1018.07 1018.32 1018.53 1018.68 1018.76 1018.76 1018.73 1018.71 1018.74
1012.02 1012.37 1012.84 1013.38 1013.91 1014.35 1014.68 1014.88 1014.98 1015.02 1015.08 1015.17 1015.33 1015.53 1015.75 1015.95 1016.08 1016.16 1016.18 1016.18 1016.20 1016.27 1016.42 1016.63 1016.87 1017.10 1017.29 1017.42 1017.49 1017.52 1017.55 1017.61 1017.74 1017.93 1018.17 1018.42 1018.64 1018.79 1018.87 1018.87 1018.83 1018.79 1018.80
1012.00 1012.42 1012.93 1013.47 1013.97 1014.37 1014.64 1014.79 1014.86 1014.91 1014.99 1015.13 1015.34 1015.60 1015.86 1016.09 1016.25 1016.33 1016.34 1016.32 1016.32 1016.37 1016.49 1016.66 1016.88 1017.09 1017.27 1017.39 1017.46 1017.49 1017.53 1017.60 1017.73 1017.92 1018.17 1018.42 1018.65 1018.82 1018.90 1018.92 1018.88 1018.85 1018.85
1011.81 1012.31 1012.87 1013.42 1013.90 1014.27 1014.51 1014.64 1014.71 1014.79 1014.91 1015.11 1015.39 1015.71 1016.02 1016.29 1016.47 1016.55 1016.54 1016.50 1016.46 1016.46 1016.53 1016.66 1016.84 1017.02 1017.18 1017.30 1017.37 1017.42 1017.46 1017.54 1017.68 1017.88 1018.12 1018.37 1018.60 1018.78 1018.89 1018.93 1018.92 1018.90 1018.91
1011.49 1012.07 1012.68 1013.25 1013.74 1014.10 1014.33 1014.47 1014.57 1014.68 1014.86 1015.13 1015.47 1015.85 1016.21 1016.51 1016.70 1016.78 1016.77 1016.69 1016.61 1016.56 1016.57 1016.65 1016.78 1016.93 1017.08 1017.20 1017.28 1017.35 1017.42 1017.51 1017.65 1017.84 1018.07 1018.31 1018.54 1018.73 1018.86 1018.93 1018.97 1018.98 1019.01
1011.12 1011.77 1012.42 1013.02 1013.51 1013.88 1014.13 1014.31 1014.45 1014.62 1014.86 1015.19 1015.58 1016.00 1016.39 1016.71 1016.92 1017.00 1016.97 1016.87 1016.76 1016.67 1016.63 1016.66 1016.75 1016.88 1017.02 1017.14 1017.25 1017.35 1017.44 1017.55 1017.68 1017.86 1018.07 1018.29 1018.50 1018.69 1018.84 1018.95 1019.02 1019.08 1019.13
1010.80 1011.48 1012.15 1012.76 1013.27 1013.67 1013.96 1014.19 1014.39 1014.62 1014.92 1015.28 1015.69 1016.13 1016.53 1016.85 1017.07 1017.15 1017.13 1017.03 1016.90 1016.79 1016.72 1016.72 1016.78 1016.90 1017.03 1017.18 1017.31 1017.44 1017.56 1017.67 1017.81 1017.96 1018.12 1018.30 1018.49 1018.66 1018.81 1018.94 1019.06 1019.16 1019.25
1010.60 1011.27 1011.92 1012.53 1013.05 1013.48 1013.83 1014.12 1014.40 1014.69 1015.01 1015.39 1015.80 1016.22 1016.60 1016.91 1017.12 1017.22 1017.22 1017.15 1017.04 1016.94 1016.87 1016.86 1016.91 1017.02 1017.16 1017.32 1017.48 1017.63 1017.77 1017.89 1018.01 1018.12 1018.24 1018.36 1018.49 1018.62 1018.76 1018.90 1019.05 1019.19 1019.32
1010.55 1011.15 1011.75 1012.32 1012.85 1013.32 1013.73 1014.11 1014.46 1014.80 1015.15 1015.52 1015.89 1016.26 1016.60 1016.88 1017.08 1017.21 1017.25 1017.23 1017.17 1017.11 1017.07 1017.08 1017.13 1017.24 1017.38 1017.55 1017.73 1017.90 1018.05 1018.17 1018.27 1018.34 1018.39 1018.44 1018.50 1018.58 1018.68 1018.81 1018.97 1019.13 1019.30
1010.63 1011.11 1011.61 1012.13 1012.65 1013.17 1013.66 1014.12 1014.55 1014.94 1015.31 1015.65 1015.97 1016.27 1016.54 1016.78 1016.97 1017.12 1017.22 1017.28 1017.31 1017.32 1017.33 1017.36 1017.43 1017.53 1017.68 1017.85 1018.04 1018.22 1018.37 1018.49 1018.56 1018.58 1018.57 1018.54 1018.53 1018.53 1018.58 1018.68 1018.82 1019.00 1019.19
1010.77 1011.10 1011.48 1011.93 1012.45 1013.01 1013.58 1014.14 1014.66 1015.11 1015.48 1015.79 1016.04 1016.25 1016.45 1016.64 1016.83 1017.01 1017.18 1017.33 1017.45 1017.54 1017.62 1017.69 1017.77 1017.88 1018.01 1018.18 1018.36 1018.55 1018.71 1018.82 1018.87 1018.85 1018.78 1018.68 1018.58 1018.51 1018.49 1018.54 1018.65 1018.82 1019.01
1010.92 1011.08 1011.33 1011.72 1012.22 1012.83 1013.49 1014.15 1014.76 1015.26 1015.65 1015.92 1016.11 1016.24 1016.37 1016.51 1016.69 1016.91 1017.14 1017.39 1017.60 1017.79 1017.93 1018.04 1018.13 1018.23 1018.35 1018.51 1018.69 1018.87 1019.04 1019.15 1019.20 1019.16 1019.04 1018.88 1018.70 1018.55 1018.45 1018.44 1018.51 1018.65 1018.83
1011.04 1011.04 1011.17 1011.48 1011.98 1012.64 1013.38 1014.14 1014.83 1015.40 1015.80 1016.05 1016.18 1016.25 1016.31 1016.41 1016.58 1016.83 1017.13 1017.46 1017.77 1018.03 1018.23 1018.37 1018.47 1018.56 1018.67 1018.81 1018.98 1019.17 1019.35 1019.49 1019.55 1019.50 1019.37 1019.16 1018.93 1018.70 1018.53 1018.44 1018.45 1018.55 1018.71
1011.13 1010.99 1011.02 1011.28 1011.77 1012.45 1013.27 1014.11 1014.87 1015.49 1015.92 1016.16 1016.25 1016.26 1016.27 1016.34 1016.51 1016.79 1017.14 1017.54 1017.92 1018.24 1018.48 1018.65 1018.75 1018.83 1018.93 1019.06 1019.24 1019.44 1019.65 1019.82 1019.91 1019.89 1019.76 1019.54 1019.26 1018.98 1018.74 1018.58 1018.52 1018.56 1018.69
1011.21 1010.99 1010.94 1011.14 1011.61 1012.31 1013.16 1014.05 1014.87 1015.53 1015.98 1016.21 1016.28 1016.27 1016.25 1016.30 1016.47 1016.77 1017.16 1017.60 1018.03 1018.40 1018.67 1018.85 1018.95 1019.03 1019.11 1019.24 1019.43 1019.67 1019.92 1020.14 1020.28 1020.30 1020.20 1019.99 1019.69 1019.37 1019.08 1018.85 1018.73 1018.71 1018.78
1011.35 1011.08 1010.98 1011.14 1011.57 1012.25 1013.10 1014.00 1014.83 1015.50 1015.96 1016.20 1016.26 1016.24 1016.21 1016.26 1016.43 1016.74 1017.16 1017.63 1018.09 1018.48 1018.76 1018.95 1019.05 1019.12 1019.20 1019.34 1019.55 1019.82 1020.12 1020.40 1020.61 1020.69 1020.63 1020.45 1020.16 1019.82 1019.49 1019.21 1019.02 1018.94 1018.96
1011.57 1011.30 1011.18 1011.29 1011.67 1012.29 1013.09 1013.94 1014.75 1015.40 1015.85 1016.09 1016.16 1016.14 1016.11 1016.17 1016.35 1016.67 1017.10 1017.58 1018.05 1018.45 1018.74 1018.93 1019.03 1019.10 1019.20 1019.35 1019.59 1019.90 1020.25 1020.58 1020.85 1020.99 1020.99 1020.85 1020.59 1020.25 1019.90 1019.59 1019.35 1019.21 1019.17
1011.89 1011.65 1011.51 1011.58 1011.88 1012.42 1013.12 1013.89 1014.63 1015.24 1015.66 1015.89 1015.96 1015.95 1015.95 1016.02 1016.21 1016.54 1016.97 1017.45 1017.91 1018.31 1018.60 1018.79 1018.91 1018.99 1019.10 1019.27 1019.53 1019.88 1020.26 1020.65 1020.96 1021.16 1021.22 1021.12 1020.90 1020.59 1020.24 1019.91 1019.64 1019.46 1019.35
Thickness
5784 5786 5785 5784 5782 5781 5780 5779 5778 5778 5776 5775 5774 5773 5771 5769 5767 5766 5764 5762 5761 5759 5757 5756 5755 5754 5753 5752 5751 5750 5749 5748 5747 5746 5745 5744 5743 5741 5740 5739 5738 5737 5736
5790 5786 5785 5783 5782 5780 5779 5777 5776 5776 5775 5774 5772 5771 5769 5767 5766 5764 5762 5760 5759 5757 5756 5755 5754 5753 5751 5750 5749 5748 5747 5746 5745 5744 5744 5742 5741 5740 5738 5737 5736 5735 5735
5789 5786 5783 5782 5781 5779 5777 5776 5775 5774 5772 5772 5770 5769 5767 5766 5764 5762 5761 5759 5757 5756 5754 5753 5752 5751 5749 5748 5747 5746 5745 5744 5743 5742 5741 5740 5739 5738 5737 5736 5735 5734 5733
5787 5784 5782 5780 5779 5777 5775 5774 5773 5772 5771 5770 5768 5767 5766 5764 5763 5761 5759 5757 5756 5754 5753 5751 5750 5749 5747 5746 5745 5744 5743 5742 5741 5740 5739 5738 5738 5736 5735 5734 5733 5733 5732
5785 5782 5780 5778 5777 5775 5774 5772 5771 5770 5769 5768 5767 5765 5764 5762 5761 5759 5757 5756 5754 5752 5751 5750 5748 5747 5745 5744 5743 5742 5741 5741 5740 5739 5737 5736 5736 5735 5733 5733 5732 5731 5730
5782 5779 5778 5776 5774 5773 5772 5770 5769 5768 5767 5766 5765 5764 5762 5761 5759 5758 5756 5754 5752 5750 5749 5747 5746 5745 5743 5742 5741 5740 5740 5739 5739 5737 5735 5734 5733 5733 5732 5731 5731 5730 5729
5779 5776 5774 5773 5772 5771 5770 5769 5767 5766 5765 5764 5763 5762 5760 5759 5757 5756 5754 5752 5750 5748 5747 5745 5744 5743 5741 5740 5739 5739 5738 5738 5737 5735 5733 5732 5731 5731 5730 5729 5729 5728 5728
5777 5773 5771 5770 5769 5769 5768 5767 5765 5764 5763 5762 5761 5760 5758 5757 5755 5754 5752 5750 5748 5746 5745 5743 5741 5740 5739 5738 5737 5737 5736 5736 5734 5733 5731 5730 5729 5729 5728 5727 5726 5726 5726
5772 5770 5768 5767 5767 5766 5765 5764 5763 5762 5761 5760 5759 5758 5756 5755 5753 5751 5750 5748 5746 5744 5742 5741 5739 5738 5737 5736 5735 5735 5735 5734 5732 5730 5729 5728 5727 5727 5726 5725 5724 5724 5724
5768 5767 5765 5764 5764 5764 5762 5761 5760 5760 5759 5758 5757 5755 5754 5752 5751 5749 5748 5746 5744 5742 5740 5739 5737 5735 5734 5734 5733 5733 5733 5731 5729 5728 5727 5726 5726 5725 5725 5724 5723 5722 5722
5761 5762 5762 5762 5761 5761 5760 5759 5758 5758 5757 5756 5755 5753 5752 5750 5749 5747 5745 5744 5742 5740 5739 5737 5735 5733 5732 5732 5732 5731 5731 5730 5728 5726 5725 5724 5724 5723 5723 5722 5721 5721 5720
5756 5756 5758 5758 5759 5758 5757 5756 5756 5755 5755 5754 5753 5751 5750 5748 5747 5745 5743 5742 5740 5738 5737 5735 5733 5731 5731 5730 5730 5730 5729 5728 5726 5724 5723 5722 5722 5721 5721 5720 5720 5719 5718
5758 5755 5754 5755 5756 5756 5756 5753 5753 5752 5752 5751 5751 5750 5747 5746 5745 5744 5742 5740 5739 5737 5735 5733 5732 5730 5729 5729 5729 5728 5727 5727 5725 5724 5722 5721 5721 5720 5720 5719 5718 5717 5716
5754 5753 5752 5753 5753 5753 5753 5752 5751 5750 5749 5749 5749 5748 5746 5744 5743 5742 5740 5738 5737 5735 5733 5732 5730 5729 5727 5727 5727 5726 5726 5725 5724 5723 5722 5721 5720 5719 5719 5718 5716 5715 5714
5749 5749 5749 5751 5749 5750 5751 5750 5749 5748 5747 5747 5747 5746 5745 5743 5741 5740 5738 5737 5735 5733 5732 5731 5729 5728 5726 5726 5725 5725 5724 5723 5722 5721 5721 5720 5719 5718 5717 5717 5715 5714 5713
5747 5746 5748 5751 5749 5748 5749 5749 5748 5747 5746 5745 5745 5745 5744 5742 5740 5739 5736 5735 5733 5732 5731 5730 5728 5727 5725 5724 5724 5724 5723 5722 5720 5720 5719 5718 5717 5716 5716 5715 5714 5713 5712
5745 5745 5744 5747 5748 5746 5747 5747 5746 5745 5744 5743 5743 5743 5742 5741 5739 5737 5735 5733 5732 5731 5730 5729 5727 5726 5724 5723 5722 5722 5721 5720 5719 5718 5717 5716 5716 5715 5714 5714 5713 5712 5711
5743 5742 5742 5744 5742 5743 5745 5745 5745 5743 5742 5742 5741 5741 5740 5739 5738 5736 5734 5732 5732 5731 5729 5727 5725 5723 5721 5720 5719 5720 5719 5719 5718 5717 5716 5715 5714 5714 5713 5713 5712 5711 5710
5742 5740 5739 5740 5740 5740 5741 5743 5742 5741 5741 5740 5739 5739 5739 5738 5737 5735 5733 5732 5731 5730 5728 5727 5723 5721 5719 5718 5719 5719 5718 5718 5717 5717 5715 5714 5714 5713 5712 5712 5711 5710 5709
5740 5738 5737 5737 5737 5737 5738 5739 5738 5737 5738 5738 5737 5737 5737 5736 5735 5734 5733 5731 5730 5728 5726 5725 5722 5721 5719 5718 5719 5717 5716 5716 5716 5715 5715 5714 5713 5712 5711 5711 5710 5709 5708
5737 5736 5735 5734 5736 5736 5736 5735 5734 5733 5734 5734 5735 5735 5735 5734 5734 5733 5731 5730 5729 5726 5725 5723 5721 5719 5717 5717 5714 5710 5711 5714 5713 5713 5713 5712 5712 5711 5710 5710 5709 5708 5707
5737 5736 5734 5734 5735 5736 5737 5737 5736 5734 5732 5733 5734 5733 5733 5733 5733 5732 5730 5729 5728 5725 5723 5722 5720 5717 5716 5715 5711 5705 5701 5703 5707 5710 5710 5710 5710 5710 5709 5708 5707 5706 5705
5737 5737 5736 5735 5736 5736 5736 5736 5733 5730 5729 5728 5729 5730 5732 5733 5732 5731 5730 5728 5727 5725 5722 5720 5719 5717 5713 5713 5712 5707 5698 5694 5698 5703 5706 5707 5707 5707 5707 5707 5706 5705 5704
5738 5739 5737 5736 5735 5735 5736 5735 5732 5729 5726 5728 5729 5730 5731 5732 5732 5731 5729 5728 5726 5724 5722 5721 5719 5717 5714 5710 5710 5710 5707 5704 5697 5695 5699 5703 5704 5705 5705 5705 5704 5703 5703
5741 5738 5737 5735 5735 5735 5736 5736 5733 5731 5730 5730 5730 5730 5730 5731 5731 5730 5729 5727 5725 5723 5722 5720 5718 5716 5714 5711 5709 5707 5706 5703 5701 5695 5691 5695 5698 5701 5702 5703 5702 5701 5701
5741 5739 5737 5736 5735 5736 5736 5735 5734 5732 5731 5729 5728 5728 5728 5728 5729 5729 5728 5726 5724 5723 5721 5720 5718 5716 5713 5711 5709 5707 5704 5701 5698 5695 5691 5690 5691 5695 5699 5700 5700 5699 5698